Regional Weather Roundup
Issued by NWS Goodland, KS

Home | Current Version | Previous Version | Graphics & Text | Print | Product List | Glossary On
Versions: 1 2 3 4 5 6 7 8 9 10 11 12 13 14 15 16 17 18 19 20 21 22 23 24 25 26 27 28 29 30 31 32 33 34 35 36 37 38 39 40 41 42 43 44 45 46 47 48 49 50
000
ASUS43 KGLD 301708
RWRGLD

GOODLAND FORECAST AREA HOURLY WEATHER ROUNDUP
NATIONAL WEATHER SERVICE GOODLAND KS
1100 AM MDT TUE SEP 30 2014

...OFFICIAL OBSERVATIONS...

CITY           SKY/WX    TMP DP  RH WIND       PRES   REMARKS
GOODLAND KS    SUNNY     67  46  47 S14       29.84F
HILL CITY KS   CLOUDY    71  59  65 S8        29.80F
IMPERIAL NEB   MOSUNNY   68  48  48 S16       29.80F
MCCOOK NEB     SUNNY     71  49  45 S9        29.80F
AKRON CO       SUNNY     64  44  48 W8        29.84S
BURLINGTON CO  SUNNY     66  42  41 SW13      29.85F
LIMON CO       SUNNY     62  38  40 CALM      29.88F
$$

...UNOFFICIAL OBSERVATIONS...

CITY           SKY/WX    TMP DP  RH WIND       PRES   REMARKS
COLBY KS       SUNNY     72  54  53 SE9       29.82F
GOVE KS          N/A     71  32  23 MISG        N/A
NORTON KS      SUNNY     73  39  29 E8        29.80S
SHARON SPRINGS   N/A     67  51  56 CALM        N/A
TRIBUNE KS     SUNNY     68  54  60 S7        29.85
WAKEENEY KS      N/A     72  55  55 MISG        N/A
KIT CARSON CO    N/A     60  47  61 MISG        N/A
YUMA CO          N/A     66  43  44 W10         N/A
$$



USA.gov is the U.S. government's official web portal to all federal, state and local government web resources and services.